Tracking 22124 objects as of 24-Jan-2021
HD Live streaming from Space Station
objects crossing your sky now

GONETS M 19

Track GONETS M 19 now!
10-day predictions


NORAD ID: 46488
Int'l Code: 2020-068C
Perigee: 1,490.5 km
Apogee: 1,512.7 km
Inclination: 82.5 °
Period: 115.9 minutes
Semi major axis: 7872 km
RCS: Unknown
Launch date: September 28, 2020
Source: Commonwealth of Independent States (former USSR) (CIS)
Launch site: PLESETSK MISSILE AND SPACE COMPLEX (PKMTR)
aabbcc
Your satellite tracking list
Your tracking list is empty




NASA's NSSDC Master Catalog

Two Line Element Set (TLE):
1 46488U 20068C   21023.66022269  .00000038  00000-0  20121-3 0  9997
2 46488  82.4977 133.2408 0014084  29.2932 330.8932 12.42872717 14569
Source of the keplerian elements: AFSPC